[[{"header":{"parameterUnit":"m.s-1","parameterCategory":1,"la1":30.2991,"la2":30.254,"lo1":-89.0895,"lo2":-89.0444,"dy":0.0017,"dx":0.0017,"nx":28,"ny":28,"refTime":"2024-10-20T21:00:00:Z","depth":0,"parameterNumber":2,"parameterNumberName":"U-component_of_WINDS"},"data":[0,0,0,0,0,0,0,0,0,0,0,0,0,0,0,0,0,0,0,0,0,0,0,0,0,0,0,0,0,0,0,0,0,0,0,0,0,0,0,0,0,0,0,0,0,0,0,0,0,0,0,0,0,0,0,0,0,0,0.2602,0.2602,0,0.2588,0.2588,0.2587,0.2596,0.2596,0.2597,0.2597,0.2579,0.2578,0.2577,0,0,0,0,0,0,0,0,0,0,0,0,0,0.2634,0.2633,0.2602,0.2602,0.2602,0.2588,0.2588,0.2587,0.2596,0.2596,0.2597,0.2597,0.2579,0.2578,0.2577,0,0,0,0,0,0,0,0,0,0,0,0,0,0.262,0.2633,0.2602,0.2604,0.2604,0.2588,0.2588,0.2587,0.2596,0.2596,0.2597,0.2598,0.258,0.2578,0.2577,0.2557,0,0,0.2573,0.2573,0,0,0,0,0,0,0,0,0.2621,0.2619,0.2604,0.2604,0.2604,0.2594,0.2592,0.2577,0.2596,0.2599,0.2597,0.2598,0.2583,0.2582,0.2578,0.2556,0.2555,0.2573,0.2572,0.2572,0.2571,0,0,0,0,0,0,0,0.2622,0.2619,0.2596,0.2604,0.2604,0.2605,0.2604,0.2589,0.2588,0.2599,0.2599,0.2598,0.2584,0.2579,0.2577,0.2555,0.2573,0.2572,0.2571,0.2571,0.2515,0.2514,0,0,0,0,0,0,0.2623,0.262,0.2597,0.2596,0.2614,0.2604,0.2603,0.2597,0.2588,0.2587,0.2597,0.2598,0.2581,0.2579,0.2577,0.2551,0.2572,0.2571,0.257,0.2515,0.2515,0.2514,0,0,0,0,0,0,0.2623,0.2621,0.2597,0.2608,0.2605,0.2603,0.2596,0.2596,0.2592,0.2587,0.2586,0.2593,0.2581,0.2579,0.2562,0.2551,0.257,0.2569,0.2516,0.2515,0.2514,0.25,0,0,0,0,0,0,0.2624,0.2621,0.2613,0.2608,0.2605,0.2583,0.2596,0.2595,0.259,0.2591,0.2583,0.2582,0.2582,0.2564,0.256,0.2549,0.2568,0.2517,0.2516,0.2515,0.2502,0.2499,0.2497,0,0,0,0,0,0.2625,0.2609,0.2613,0.261,0.2596,0.2582,0.258,0.2581,0.2589,0.2581,0.2578,0.2582,0.2553,0.2562,0.2558,0.2547,0.2518,0.2516,0.2515,0.2503,0.25,0.2497,0,0,0,0,0,0,0.2612,0.2609,0.2613,0.2594,0.2589,0.2584,0.2574,0.2578,0.2569,0.257,0.2571,0.2569,0.2551,0.2548,0.2557,0.2526,0.2536,0.2534,0.2529,0.2526,0.2523,0.2523,0.2567,0,0,0,0,0,0.2607,0.2598,0.2595,0.2579,0.2577,0.2576,0.257,0.2572,0.2565,0.2563,0.2558,0.2551,0.2541,0.2533,0.2523,0.2502,0.25,0.2493,0.249,0.2488,0.2485,0.2473,0.2469,0.2509,0.2509,0.2509,0,0,0.2597,0.2594,0.2587,0.2577,0.2573,0.2562,0.2574,0.2562,0.2553,0.256,0.2544,0.2541,0.2533,0.2514,0.2505,0.251,0.2474,0.2486,0.2484,0.2483,0.2471,0.2467,0.2464,0.2508,0.2508,0.2508,0,0,0.2571,0.2569,0.2555,0.2551,0.2546,0.2545,0.2542,0.2537,0.2536,0.252,0.2525,0.2515,0.2497,0.2491,0.2485,0.246,0.2462,0.2456,0.2442,0.243,0.2427,0.2424,0.2414,0.241,0.2454,0.2454,0.2454,0,0.2558,0.2543,0.2547,0.2535,0.253,0.2538,0.2524,0.2519,0.251,0.2506,0.2512,0.249,0.2485,0.2464,0.2458,0.2454,0.2449,0.2456,0.2428,0.2425,0.2422,0.2412,0.2408,0.2453,0.2453,0.2453,0.2453,0,0.2527,0.2517,0.2506,0.2498,0.2492,0.2479,0.248,0.2474,0.2477,0.2475,0.2459,0.2454,0.2443,0.2439,0.2441,0.2418,0.2421,0.2428,0.2438,0.2417,0.2408,0.2404,0.2452,0.2452,0.2453,0.2453,0,0,0.249,0.2487,0.2482,0.2479,0.2474,0.2465,0.2453,0.2443,0.2437,0.2431,0.2419,0.2404,0.241,0.2404,0.2406,0.2396,0.2375,0.2403,0.2403,0.2397,0.2348,0.2342,0.2337,0.2378,0.2377,0.2377,0.2348,0,0.2464,0.2442,0.2446,0.2425,0.2415,0.2423,0.2412,0.2407,0.2406,0.2397,0.2396,0.2385,0.2395,0.2391,0.2382,0.2379,0.2364,0.2382,0.2365,0.2364,0.2365,0.2333,0.2326,0.2299,0.2345,0.2344,0.2344,0,0.2429,0.2422,0.24,0.2397,0.2393,0.2383,0.2375,0.2367,0.2362,0.2362,0.2356,0.236,0.2346,0.2358,0.2339,0.2351,0.2345,0.2343,0.2342,0.2338,0.2351,0.2326,0.2291,0.2286,0.2338,0.2339,0.2339,0,0.2402,0.2388,0.2373,0.237,0.2367,0.2359,0.2357,0.2353,0.2347,0.234,0.2336,0.2327,0.2322,0.2314,0.2315,0.2325,0.2295,0.2308,0.2293,0.2293,0.2284,0.2285,0.2245,0.2285,0.2285,0.2285,0.2285,0,0.237,0.2355,0.2361,0.2351,0.2336,0.2341,0.2325,0.2324,0.232,0.231,0.2317,0.2307,0.2311,0.23,0.2301,0.2284,0.2282,0.2281,0.2281,0.2279,0.2279,0.2273,0.2274,0.2284,0.2284,0.2284,0.2284,0,0.2336,0.2339,0.2323,0.2322,0.2322,0.231,0.2308,0.2299,0.23,0.2287,0.2284,0.2285,0.2274,0.2275,0.2262,0.2263,0.2241,0.2244,0.2243,0.2243,0.2227,0.2228,0.2181,0.2174,0.222,0.222,0.2219,0,0.2314,0.2303,0.2302,0.2296,0.2294,0.2285,0.2279,0.2284,0.2278,0.2272,0.2263,0.2253,0.2245,0.2227,0.2225,0.2215,0.2217,0.2202,0.2215,0.2214,0.2214,0.2214,0.2212,0.2198,0.2197,0.2197,0.2196,0,0.2274,0.2277,0.2269,0.2262,0.2256,0.2251,0.2246,0.2241,0.2246,0.2238,0.2228,0.2221,0.2209,0.2198,0.2189,0.2186,0.2191,0.2193,0.2188,0.2185,0.2183,0.2182,0.2233,0.2193,0.2193,0.2193,0.2194,0.2194,0.2244,0.2234,0.2232,0.2223,0.2221,0.2217,0.2208,0.2209,0.22,0.2191,0.2195,0.2183,0.2178,0.2167,0.2164,0.2153,0.2158,0.2153,0.2151,0.2149,0.2146,0.2188,0.2152,0.2152,0.2152,0.2152,0.2152,0,0.2202,0.2202,0.2194,0.2188,0.2181,0.219,0.2185,0.2178,0.2167,0.2164,0.2156,0.2144,0.2134,0.2133,0.2123,0.2115,0.2117,0.2112,0.2111,0.211,0.2143,0.2146,0.2111,0.2111,0.2111,0.2111,0.2111,0.2111,0.218,0.2164,0.2167,0.215,0.215,0.2139,0.2135,0.2131,0.2128,0.2114,0.2107,0.2107,0.2104,0.2095,0.2086,0.2085,0.208,0.2074,0.2074,0.2104,0.2108,0.2112,0.2115,0.2074,0.2074,0.2043,0.2042,0.2042]},{"header":{"parameterUnit":"m.s-1","parameterCategory":1,"la1":30.2991,"la2":30.254,"lo1":-89.0895,"lo2":-89.0444,"dy":0.0017,"dx":0.0017,"nx":28,"ny":28,"refTime":"2024-10-20T21:00:00:Z","depth":0,"parameterNumber":3,"parameterNumberName":"V-component_of_WINDS"},"data":[0,0,0,0,0,0,0,0,0,0,0,0,0,0,0,0,0,0,0,0,0,0,0,0,0,0,0,0,0,0,0,0,0,0,0,0,0,0,0,0,0,0,0,0,0,0,0,0,0,0,0,0,0,0,0,0,0,0,-1.3036,-1.3038,0,-1.3194,-1.3196,-1.3197,-1.3273,-1.3273,-1.3273,-1.3273,-1.3434,-1.3438,-1.3443,0,0,0,0,0,0,0,0,0,0,0,0,0,-1.28,-1.2804,-1.3036,-1.3038,-1.304,-1.3193,-1.3196,-1.3198,-1.3273,-1.3273,-1.3273,-1.3273,-1.3433,-1.3438,-1.3443,0,0,0,0,0,0,0,0,0,0,0,0,0,-1.2925,-1.2805,-1.3035,-1.3096,-1.3103,-1.3193,-1.3196,-1.3198,-1.3273,-1.3273,-1.3273,-1.3273,-1.3431,-1.3437,-1.3444,-1.3486,0,0,-1.3464,-1.3467,0,0,0,0,0,0,0,0,-1.2917,-1.2933,-1.3085,-1.3092,-1.31,-1.3214,-1.3172,-1.3295,-1.3273,-1.3208,-1.3273,-1.3272,-1.3361,-1.3373,-1.3403,-1.3494,-1.35,-1.3464,-1.3468,-1.3471,-1.3473,0,0,0,0,0,0,0,-1.2909,-1.2927,-1.3098,-1.3087,-1.3096,-1.3115,-1.3133,-1.3195,-1.3283,-1.3214,-1.322,-1.3237,-1.3365,-1.3396,-1.3407,-1.3503,-1.3464,-1.347,-1.3474,-1.3476,-1.3638,-1.3638,0,0,0,0,0,0,-1.289,-1.2919,-1.3093,-1.3103,-1.3006,-1.3119,-1.3139,-1.3177,-1.3283,-1.3299,-1.3237,-1.324,-1.3385,-1.3399,-1.3413,-1.3471,-1.3471,-1.3477,-1.3481,-1.3637,-1.3638,-1.3638,0,0,0,0,0,0,-1.2885,-1.2905,-1.3087,-1.3013,-1.3037,-1.3124,-1.3166,-1.318,-1.3212,-1.33,-1.3316,-1.3253,-1.3386,-1.3404,-1.3468,-1.3477,-1.348,-1.3486,-1.3637,-1.3637,-1.3638,-1.3585,0,0,0,0,0,0,-1.2878,-1.2903,-1.2919,-1.3013,-1.3041,-1.3138,-1.3166,-1.3183,-1.3223,-1.3228,-1.332,-1.3335,-1.3387,-1.3457,-1.3474,-1.3486,-1.3491,-1.3636,-1.3637,-1.3638,-1.3586,-1.3583,-1.3581,0,0,0,0,0,-1.2869,-1.2898,-1.292,-1.294,-1.3064,-1.3139,-1.3155,-1.3215,-1.3223,-1.3241,-1.3298,-1.3332,-1.3473,-1.3463,-1.3483,-1.3497,-1.3636,-1.3637,-1.3638,-1.3587,-1.3584,-1.3581,0,0,0,0,0,0,-1.2803,-1.2911,-1.2937,-1.2996,-1.3058,-1.3151,-1.3175,-1.3209,-1.3269,-1.3272,-1.3343,-1.3363,-1.3421,-1.3465,-1.3452,-1.3544,-1.3558,-1.3563,-1.3513,-1.3511,-1.3508,-1.3496,-1.3497,0,0,0,0,0,-1.2795,-1.2847,-1.2939,-1.2983,-1.3012,-1.3088,-1.3123,-1.3164,-1.3231,-1.3257,-1.3319,-1.3382,-1.3441,-1.3478,-1.3537,-1.3593,-1.3614,-1.3612,-1.361,-1.3607,-1.3611,-1.3644,-1.3645,-1.3641,-1.3641,-1.3641,0,0,-1.278,-1.2846,-1.2874,-1.2971,-1.3024,-1.3076,-1.311,-1.3163,-1.3203,-1.3265,-1.3329,-1.3377,-1.3452,-1.3512,-1.3542,-1.3551,-1.3617,-1.3608,-1.3606,-1.3611,-1.3645,-1.3646,-1.3646,-1.3641,-1.3641,-1.3641,0,0,-1.2779,-1.2834,-1.2877,-1.2929,-1.3008,-1.3059,-1.3069,-1.3158,-1.3192,-1.3257,-1.3305,-1.3354,-1.3453,-1.3506,-1.3545,-1.3565,-1.3599,-1.3582,-1.3569,-1.3602,-1.3602,-1.3603,-1.361,-1.3612,-1.3585,-1.3585,-1.3585,0,-1.275,-1.2831,-1.2895,-1.2946,-1.2988,-1.3047,-1.3091,-1.3139,-1.3233,-1.326,-1.3269,-1.3397,-1.3452,-1.3525,-1.353,-1.356,-1.3574,-1.3572,-1.3597,-1.3598,-1.36,-1.3608,-1.3611,-1.3583,-1.3583,-1.3583,-1.3583,0,-1.2792,-1.2848,-1.2873,-1.2963,-1.3007,-1.3055,-1.3126,-1.3163,-1.32,-1.325,-1.3317,-1.3385,-1.3459,-1.348,-1.3516,-1.3559,-1.3562,-1.3583,-1.3598,-1.3596,-1.3606,-1.3609,-1.3579,-1.358,-1.3581,-1.3581,0,0,-1.2754,-1.2879,-1.2887,-1.2929,-1.3021,-1.3065,-1.3116,-1.3189,-1.322,-1.3283,-1.3328,-1.3412,-1.3432,-1.3477,-1.352,-1.3548,-1.356,-1.3566,-1.3569,-1.3563,-1.3613,-1.3597,-1.3599,-1.3583,-1.3584,-1.3585,-1.3607,0,-1.2766,-1.286,-1.2918,-1.2988,-1.3041,-1.3098,-1.3142,-1.3204,-1.3252,-1.3303,-1.3357,-1.3415,-1.3437,-1.3465,-1.3495,-1.3552,-1.3571,-1.3551,-1.3626,-1.3628,-1.3605,-1.3604,-1.3587,-1.3604,-1.361,-1.3611,-1.3612,0,-1.2793,-1.2855,-1.293,-1.3018,-1.3042,-1.308,-1.3153,-1.3201,-1.3273,-1.3306,-1.3356,-1.34,-1.3456,-1.3467,-1.3546,-1.3531,-1.3565,-1.3598,-1.36,-1.361,-1.362,-1.3614,-1.3611,-1.3614,-1.3618,-1.3617,-1.3617,0,-1.2758,-1.2861,-1.2919,-1.2953,-1.3056,-1.3082,-1.3127,-1.3198,-1.3238,-1.3302,-1.3329,-1.3397,-1.3435,-1.3487,-1.3549,-1.3551,-1.3622,-1.3637,-1.3651,-1.365,-1.3664,-1.3662,-1.3667,-1.3685,-1.3685,-1.3685,-1.3685,0,-1.2766,-1.281,-1.2905,-1.2941,-1.2992,-1.306,-1.3109,-1.3158,-1.3221,-1.3268,-1.3321,-1.3364,-1.3442,-1.3495,-1.3543,-1.3602,-1.3618,-1.3647,-1.3659,-1.3643,-1.3639,-1.3666,-1.3667,-1.3686,-1.3685,-1.3685,-1.3685,0,-1.2735,-1.2801,-1.2869,-1.2961,-1.2985,-1.3019,-1.3099,-1.3136,-1.3187,-1.3246,-1.3263,-1.3344,-1.3409,-1.3475,-1.3563,-1.3595,-1.3653,-1.367,-1.3629,-1.3636,-1.3646,-1.3644,-1.3669,-1.3676,-1.3688,-1.3688,-1.3687,0,-1.2736,-1.2772,-1.2868,-1.2903,-1.2946,-1.3002,-1.3044,-1.3112,-1.3154,-1.3238,-1.3265,-1.3334,-1.3393,-1.3494,-1.3561,-1.3628,-1.3648,-1.3652,-1.3658,-1.364,-1.3649,-1.3646,-1.365,-1.3649,-1.3648,-1.3648,-1.3648,0,-1.2731,-1.2762,-1.282,-1.289,-1.2938,-1.2996,-1.3057,-1.3083,-1.3163,-1.3206,-1.3274,-1.3319,-1.3409,-1.3477,-1.3553,-1.3599,-1.3637,-1.3645,-1.3652,-1.3635,-1.3611,-1.3625,-1.3622,-1.3644,-1.3645,-1.3645,-1.3645,-1.3645,-1.2717,-1.2751,-1.2825,-1.2888,-1.2941,-1.2996,-1.3036,-1.3092,-1.3149,-1.3228,-1.3265,-1.3332,-1.3404,-1.351,-1.3555,-1.3609,-1.362,-1.363,-1.3632,-1.3634,-1.363,-1.3602,-1.3623,-1.3624,-1.3624,-1.3624,-1.3624,0,-1.2715,-1.2765,-1.2823,-1.2906,-1.2955,-1.2987,-1.3056,-1.3095,-1.3154,-1.3218,-1.3275,-1.3352,-1.3419,-1.3491,-1.3562,-1.3591,-1.3611,-1.3608,-1.3607,-1.3617,-1.3616,-1.3603,-1.3591,-1.3591,-1.3591,-1.3591,-1.3591,-1.3591,-1.272,-1.278,-1.2819,-1.2906,-1.2957,-1.3024,-1.306,-1.3112,-1.3163,-1.3247,-1.3303,-1.3349,-1.3417,-1.3493,-1.3556,-1.3576,-1.3599,-1.3592,-1.3616,-1.3614,-1.3617,-1.3619,-1.3607,-1.3596,-1.3596,-1.3612,-1.3613,-1.3613]}]]